SIF122 OPIS-OPKC

Flight info

Callsign SIF122
Flight time 1h 31m
Altitude 36000
Route BELKO Z301 NH
Aircraft A320/M-SDE3FGHIRWY/LB1

Departure

Time 2026-05-05 17:50
Airport Islamabad International Airport (OPIS)

Arrival

Time 2026-05-05 19:21
Airport Jinnah International Airport (OPKC)
Time Latitude Longitude Altitude Speed Heading
2026-05-05 17:27 33.55595 72.83166 1773 ft 0 kts 120°
2026-05-05 17:30 33.55666 72.83181 1769 ft 0 kts 100°
2026-05-05 17:39 33.55669 72.83161 1771 ft 4 kts 102°
2026-05-05 17:39 33.55676 72.83129 1772 ft 4 kts 109°
2026-05-05 17:40 33.55687 72.83100 1772 ft 4 kts 127°
2026-05-05 17:40 33.55704 72.83083 1770 ft 4 kts 182°
2026-05-05 17:40 33.55713 72.83084 1770 ft 0 kts 190°
2026-05-05 17:42 33.55709 72.83083 1770 ft 2 kts 190°
2026-05-05 17:42 33.55686 72.83078 1772 ft 5 kts 190°
2026-05-05 17:43 33.55651 72.83058 1770 ft 7 kts 227°
2026-05-05 17:43 33.55616 72.83005 1770 ft 10 kts 237°
2026-05-05 17:43 33.55575 72.82929 1771 ft 12 kts 237°
2026-05-05 17:43 33.55522 72.82837 1770 ft 15 kts 234°
2026-05-05 17:44 33.55458 72.82731 1770 ft 17 kts 234°
2026-05-05 17:44 33.55382 72.82627 1770 ft 15 kts 205°
2026-05-05 17:44 33.55272 72.82603 1771 ft 17 kts 190°
2026-05-05 17:44 33.55183 72.82636 1769 ft 15 kts 122°
2026-05-05 17:45 33.55167 72.82763 1772 ft 16 kts 99°
2026-05-05 17:45 33.55145 72.82903 1768 ft 18 kts 99°
2026-05-05 17:45 33.55121 72.83059 1769 ft 20 kts 101°
2026-05-05 17:45 33.55095 72.83227 1771 ft 22 kts 99°
2026-05-05 17:46 33.55067 72.83411 1771 ft 23 kts 101°
2026-05-05 17:46 33.55037 72.83605 1772 ft 24 kts 99°
2026-05-05 17:46 33.55006 72.83809 1771 ft 26 kts 100°
2026-05-05 17:46 33.54973 72.84026 1768 ft 27 kts 101°
2026-05-05 17:47 33.54939 72.84250 1768 ft 28 kts 100°
2026-05-05 17:47 33.54907 72.84457 1770 ft 17 kts 100°
2026-05-05 17:47 33.54844 72.84551 1769 ft 16 kts 176°
2026-05-05 17:47 33.54721 72.84517 1764 ft 21 kts 191°
2026-05-05 17:48 33.54596 72.84489 1766 ft 16 kts 191°
2026-05-05 17:48 33.54513 72.84461 1761 ft 8 kts 220°
2026-05-05 17:48 33.54521 72.84391 1763 ft 10 kts 281°
2026-05-05 17:48 33.54537 72.84297 1762 ft 16 kts 281°
2026-05-05 17:49 33.54599 72.83905 1762 ft 81 kts 280°
2026-05-05 17:49 33.54735 72.83028 1762 ft 131 kts 280°
2026-05-05 17:49 33.54927 72.81787 1762 ft 170 kts 280°
2026-05-05 17:49 33.55166 72.80329 2147 ft 180 kts 280°
2026-05-05 17:50 33.55402 72.78855 2805 ft 180 kts 280°
2026-05-05 17:50 33.55630 72.77375 3452 ft 181 kts 280°
2026-05-05 17:50 33.55866 72.75854 3769 ft 196 kts 280°
2026-05-05 17:50 33.56095 72.74145 3938 ft 220 kts 271°
2026-05-05 17:51 33.55753 72.72299 4168 ft 244 kts 241°
2026-05-05 17:51 33.54602 72.70692 4533 ft 266 kts 223°
2026-05-05 17:51 33.53062 72.69408 5192 ft 274 kts 208°
2026-05-05 17:51 33.51352 72.68352 5984 ft 279 kts 207°
2026-05-05 17:52 33.49612 72.67283 6753 ft 283 kts 208°
2026-05-05 17:52 33.47850 72.66202 7498 ft 287 kts 208°
2026-05-05 17:52 33.46052 72.65097 8261 ft 291 kts 209°
2026-05-05 17:52 33.44243 72.63990 9014 ft 295 kts 209°
2026-05-05 17:53 33.42406 72.62863 9778 ft 299 kts 210°
2026-05-05 17:53 33.40542 72.61717 10345 ft 308 kts 210°
2026-05-05 17:53 33.38567 72.60491 10523 ft 331 kts 210°
2026-05-05 17:53 33.36453 72.59160 10641 ft 354 kts 211°
2026-05-05 17:54 33.34215 72.57743 10795 ft 373 kts 211°
2026-05-05 17:54 33.31893 72.56274 11238 ft 381 kts 211°
2026-05-05 17:54 33.29534 72.54788 11810 ft 385 kts 211°
2026-05-05 17:54 33.27146 72.53287 12375 ft 389 kts 211°
2026-05-05 17:55 33.24743 72.51777 12945 ft 393 kts 211°
2026-05-05 17:55 33.22313 72.50251 13512 ft 397 kts 211°
2026-05-05 17:55 33.19878 72.48721 13975 ft 402 kts 212°
2026-05-05 17:55 33.17391 72.47159 14449 ft 406 kts 212°
2026-05-05 17:56 33.14884 72.45584 14972 ft 409 kts 212°
2026-05-05 17:56 33.12352 72.43994 15471 ft 412 kts 212°
2026-05-05 17:56 33.09801 72.42399 15981 ft 415 kts 211°
2026-05-05 17:56 33.07229 72.40796 16507 ft 418 kts 211°
2026-05-05 17:57 33.04644 72.39186 17038 ft 421 kts 211°
2026-05-05 17:57 33.02039 72.37560 17564 ft 424 kts 211°
2026-05-05 17:57 32.99415 72.35921 18091 ft 427 kts 211°
2026-05-05 17:57 32.96774 72.34268 18562 ft 430 kts 211°
2026-05-05 17:58 32.94116 72.32605 19031 ft 433 kts 211°
2026-05-05 17:58 32.91433 72.30926 19494 ft 436 kts 211°
2026-05-05 17:58 32.88738 72.29246 19952 ft 439 kts 211°
2026-05-05 17:58 32.86018 72.27557 20408 ft 442 kts 211°
2026-05-05 17:59 32.83270 72.25856 20845 ft 445 kts 211°
2026-05-05 17:59 32.80544 72.24169 21202 ft 449 kts 211°
2026-05-05 17:59 32.77765 72.22444 21593 ft 452 kts 211°
2026-05-05 17:59 32.74960 72.20703 21988 ft 456 kts 211°
2026-05-05 18:00 32.72139 72.18954 22365 ft 459 kts 211°
2026-05-05 18:00 32.69297 72.17193 22734 ft 462 kts 211°
2026-05-05 18:00 32.66440 72.15426 23110 ft 464 kts 211°
2026-05-05 18:00 32.63561 72.13647 23483 ft 467 kts 211°
2026-05-05 18:01 32.60667 72.11858 23801 ft 470 kts 211°
2026-05-05 18:01 32.57763 72.10061 24101 ft 472 kts 211°
2026-05-05 18:01 32.54838 72.08250 24424 ft 474 kts 211°
2026-05-05 18:01 32.51900 72.06437 24752 ft 476 kts 212°
2026-05-05 18:02 32.49001 72.04652 25076 ft 479 kts 211°
2026-05-05 18:02 32.46001 72.02808 25388 ft 481 kts 211°
2026-05-05 18:02 32.43064 72.01001 25699 ft 483 kts 211°
2026-05-05 18:02 32.40079 71.99165 26086 ft 482 kts 212°
2026-05-05 18:03 32.37107 71.97337 26514 ft 481 kts 212°
2026-05-05 18:03 32.34136 71.95510 26949 ft 481 kts 212°
2026-05-05 18:03 32.31173 71.93689 27382 ft 480 kts 212°
2026-05-05 18:03 32.28202 71.91868 27841 ft 479 kts 212°
2026-05-05 18:04 32.25247 71.90062 28265 ft 478 kts 212°
2026-05-05 18:04 32.22315 71.88267 28721 ft 477 kts 212°
2026-05-05 18:04 32.19370 71.86467 29187 ft 476 kts 212°
2026-05-05 18:04 32.16423 71.84665 29680 ft 475 kts 212°
2026-05-05 18:05 32.13497 71.82878 30128 ft 473 kts 213°
2026-05-05 18:05 32.10574 71.81093 30548 ft 472 kts 213°
2026-05-05 18:05 32.07661 71.79316 30960 ft 470 kts 213°
2026-05-05 18:05 32.05747 71.78150 31268 ft 468 kts 213°
2026-05-05 18:06 32.02875 71.76403 31707 ft 466 kts 213°
2026-05-05 18:06 32.00968 71.75243 31977 ft 465 kts 214°
2026-05-05 18:06 31.97131 71.72911 32558 ft 463 kts 214°
2026-05-05 18:06 31.93345 71.70608 33119 ft 461 kts 214°
2026-05-05 18:07 31.91418 71.69435 33412 ft 460 kts 215°
2026-05-05 18:07 31.88581 71.67710 33843 ft 459 kts 215°
2026-05-05 18:07 31.84830 71.65432 34305 ft 458 kts 215°
2026-05-05 18:07 31.82917 71.64271 34510 ft 457 kts 215°
2026-05-05 18:08 31.80096 71.62558 34809 ft 457 kts 216°
2026-05-05 18:08 31.77270 71.60844 35069 ft 456 kts 216°
2026-05-05 18:08 31.74451 71.59139 35354 ft 456 kts 216°
2026-05-05 18:08 31.71620 71.57424 35490 ft 460 kts 216°
2026-05-05 18:09 31.68760 71.55690 35588 ft 464 kts 216°
2026-05-05 18:09 31.65871 71.53943 35701 ft 468 kts 216°
2026-05-05 18:09 31.62974 71.52196 35848 ft 470 kts 216°
2026-05-05 18:10 31.57145 71.48684 35894 ft 471 kts 216°
2026-05-05 18:10 31.51354 71.45206 35893 ft 469 kts 216°
2026-05-05 18:11 31.45565 71.41734 35888 ft 466 kts 216°
2026-05-05 18:11 31.39805 71.38276 35887 ft 465 kts 216°
2026-05-05 18:12 31.34037 71.34814 35891 ft 465 kts 216°
2026-05-05 18:12 31.28303 71.31375 35892 ft 465 kts 216°
2026-05-05 18:13 31.22535 71.27929 35893 ft 466 kts 216°
2026-05-05 18:13 31.16792 71.24502 35879 ft 465 kts 216°
2026-05-05 18:14 31.11033 71.21072 35893 ft 465 kts 216°
2026-05-05 18:14 31.05262 71.17637 35894 ft 465 kts 216°
2026-05-05 18:15 30.99505 71.14208 35893 ft 464 kts 216°
2026-05-05 18:15 30.93750 71.10788 35897 ft 465 kts 216°
2026-05-05 18:16 30.87968 71.07365 35883 ft 465 kts 216°
2026-05-05 18:16 30.82205 71.03951 35889 ft 465 kts 215°
2026-05-05 18:17 30.76432 71.00544 35894 ft 465 kts 215°
2026-05-05 18:17 30.70658 70.97143 35893 ft 465 kts 215°
2026-05-05 18:18 30.64892 70.93735 35891 ft 465 kts 215°
2026-05-05 18:18 30.59131 70.90341 35874 ft 465 kts 215°
2026-05-05 18:19 30.53390 70.86973 35869 ft 465 kts 215°
2026-05-05 18:19 30.47611 70.83585 35881 ft 465 kts 215°
2026-05-05 18:20 30.41860 70.80201 35888 ft 465 kts 215°
2026-05-05 18:20 30.36079 70.76812 35893 ft 466 kts 215°
2026-05-05 18:21 30.30291 70.73420 35882 ft 466 kts 215°
2026-05-05 18:21 30.24494 70.70042 35884 ft 466 kts 215°
2026-05-05 18:22 30.18702 70.66666 35895 ft 466 kts 215°
2026-05-05 18:22 30.12922 70.63301 35900 ft 466 kts 215°
2026-05-05 18:23 30.07148 70.59941 35894 ft 466 kts 215°
2026-05-05 18:23 30.01373 70.56583 35875 ft 467 kts 216°
2026-05-05 18:24 29.95573 70.53215 35875 ft 467 kts 216°
2026-05-05 18:24 29.89790 70.49868 35887 ft 466 kts 216°
2026-05-05 18:25 29.83991 70.46512 35901 ft 466 kts 216°
2026-05-05 18:25 29.78201 70.43158 35899 ft 466 kts 216°
2026-05-05 18:26 29.72405 70.39810 35900 ft 466 kts 216°
2026-05-05 18:26 29.66602 70.36474 35899 ft 466 kts 215°
2026-05-05 18:27 29.60799 70.33133 35909 ft 466 kts 216°
2026-05-05 18:27 29.55030 70.29815 35909 ft 466 kts 216°
2026-05-05 18:28 29.46351 70.24827 35905 ft 466 kts 216°
2026-05-05 18:28 29.40555 70.21499 35881 ft 465 kts 216°
2026-05-05 18:29 29.34756 70.18174 35884 ft 465 kts 216°
2026-05-05 18:29 29.28972 70.14869 35887 ft 464 kts 216°
2026-05-05 18:30 29.23194 70.11567 35893 ft 464 kts 216°
2026-05-05 18:30 29.17408 70.08274 35891 ft 464 kts 216°
2026-05-05 18:31 29.11627 70.04984 35887 ft 464 kts 216°
2026-05-05 18:31 29.05851 70.01695 35891 ft 464 kts 216°
2026-05-05 18:32 29.00101 69.98428 35894 ft 463 kts 216°
2026-05-05 18:32 28.94356 69.95173 35883 ft 463 kts 216°
2026-05-05 18:33 28.88594 69.91908 35895 ft 463 kts 216°
2026-05-05 18:33 28.82811 69.88632 35862 ft 464 kts 216°
2026-05-05 18:34 28.77051 69.85379 35860 ft 464 kts 216°
2026-05-05 18:34 28.71269 69.82114 35865 ft 464 kts 216°
2026-05-05 18:35 28.65527 69.78875 35873 ft 464 kts 216°
2026-05-05 18:35 28.59736 69.75615 35869 ft 464 kts 216°
2026-05-05 18:36 28.53947 69.72360 35840 ft 463 kts 215°
2026-05-05 18:36 28.48165 69.69122 35859 ft 463 kts 215°
2026-05-05 18:37 28.42394 69.65905 35864 ft 462 kts 215°
2026-05-05 18:37 28.36617 69.62691 35862 ft 462 kts 215°
2026-05-05 18:38 28.30837 69.59474 35860 ft 462 kts 215°
2026-05-05 18:38 28.25067 69.56266 35863 ft 462 kts 215°
2026-05-05 18:39 28.19298 69.53057 35846 ft 461 kts 215°
2026-05-05 18:39 28.13538 69.49855 35852 ft 460 kts 215°
2026-05-05 18:40 28.07794 69.46675 35852 ft 460 kts 215°
2026-05-05 18:40 28.02045 69.43494 35856 ft 459 kts 215°
2026-05-05 18:41 27.96307 69.40317 35854 ft 459 kts 215°
2026-05-05 18:41 27.90603 69.37171 35837 ft 458 kts 215°
2026-05-05 18:42 27.84864 69.34009 35845 ft 458 kts 215°
2026-05-05 18:42 27.79137 69.30853 35847 ft 458 kts 215°
2026-05-05 18:43 27.73406 69.27695 35838 ft 458 kts 215°
2026-05-05 18:43 27.67687 69.24553 35848 ft 458 kts 215°
2026-05-05 18:44 27.61949 69.21411 35812 ft 458 kts 214°
2026-05-05 18:44 27.56216 69.18281 35809 ft 457 kts 215°
2026-05-05 18:45 27.50493 69.15141 35827 ft 457 kts 215°
2026-05-05 18:45 27.44787 69.12016 35832 ft 457 kts 215°
2026-05-05 18:46 27.39064 69.08876 35834 ft 456 kts 216°
2026-05-05 18:46 27.33503 69.05586 35834 ft 454 kts 218°
2026-05-05 18:47 27.27974 69.02157 35813 ft 453 kts 218°
2026-05-05 18:47 27.22425 68.98747 35821 ft 454 kts 217°
2026-05-05 18:48 27.16847 68.95390 35829 ft 455 kts 217°
2026-05-05 18:48 27.12210 68.92613 35828 ft 455 kts 217°
2026-05-05 18:49 27.06651 68.89272 35826 ft 455 kts 217°
2026-05-05 18:49 27.00175 68.85383 35791 ft 455 kts 217°
2026-05-05 18:50 26.94594 68.82035 35812 ft 455 kts 217°
2026-05-05 18:50 26.89007 68.78688 35822 ft 455 kts 217°
2026-05-05 18:51 26.84326 68.75878 35825 ft 455 kts 217°
2026-05-05 18:51 26.78743 68.72533 35830 ft 455 kts 217°
2026-05-05 18:52 26.73156 68.69196 35825 ft 455 kts 217°
2026-05-05 18:52 26.67585 68.65871 35826 ft 455 kts 217°
2026-05-05 18:53 26.61992 68.62540 35824 ft 455 kts 217°
2026-05-05 18:53 26.56437 68.59229 35826 ft 455 kts 217°
2026-05-05 18:54 26.50857 68.55901 35827 ft 455 kts 217°
2026-05-05 18:54 26.45267 68.52573 35814 ft 455 kts 217°
2026-05-05 18:55 26.39681 68.49250 35810 ft 455 kts 217°
2026-05-05 18:55 26.34098 68.45928 35814 ft 455 kts 216°
2026-05-05 18:56 26.28515 68.42609 35823 ft 454 kts 216°
2026-05-05 18:56 26.22926 68.39296 35827 ft 454 kts 216°
2026-05-05 18:57 26.17727 68.35539 35823 ft 446 kts 223°
2026-05-05 18:57 26.12618 68.31606 35832 ft 447 kts 223°
2026-05-05 18:58 26.07493 68.27685 35835 ft 447 kts 223°
2026-05-05 18:58 26.02422 68.23824 35824 ft 437 kts 222°
2026-05-05 18:59 25.97425 68.20010 35827 ft 434 kts 223°
2026-05-05 18:59 25.92438 68.16202 35836 ft 435 kts 222°
2026-05-05 19:00 25.87457 68.12405 35838 ft 435 kts 222°
2026-05-05 19:00 25.82464 68.08596 35842 ft 435 kts 222°
2026-05-05 19:01 25.77505 68.04824 35843 ft 435 kts 222°
2026-05-05 19:01 25.72499 68.01036 35827 ft 435 kts 222°
2026-05-05 19:02 25.67494 67.97236 35827 ft 436 kts 222°
2026-05-05 19:02 25.62481 67.93428 35837 ft 437 kts 222°
2026-05-05 19:03 25.59984 67.91533 35603 ft 439 kts 222°
2026-05-05 19:03 25.57442 67.89602 34698 ft 448 kts 222°
2026-05-05 19:03 25.54856 67.87642 34050 ft 452 kts 222°
2026-05-05 19:03 25.52254 67.85678 33430 ft 452 kts 222°
2026-05-05 19:04 25.49657 67.83725 32883 ft 450 kts 222°
2026-05-05 19:04 25.47094 67.81797 32352 ft 447 kts 222°
2026-05-05 19:04 25.44526 67.79864 31872 ft 444 kts 222°
2026-05-05 19:04 25.41981 67.77946 31372 ft 441 kts 222°
2026-05-05 19:05 25.39453 67.76039 30872 ft 438 kts 222°
2026-05-05 19:05 25.36945 67.74148 30392 ft 436 kts 221°
2026-05-05 19:05 25.34445 67.72269 29962 ft 433 kts 222°
2026-05-05 19:05 25.31959 67.70402 29414 ft 430 kts 222°
2026-05-05 19:06 25.29485 67.68542 28877 ft 427 kts 221°
2026-05-05 19:06 25.27070 67.66726 28348 ft 424 kts 221°
2026-05-05 19:06 25.24641 67.64897 27842 ft 421 kts 221°
2026-05-05 19:06 25.22228 67.63081 27348 ft 419 kts 221°
2026-05-05 19:07 25.19829 67.61275 26869 ft 416 kts 220°
2026-05-05 19:07 25.17444 67.59480 26398 ft 413 kts 220°
2026-05-05 19:07 25.15089 67.57712 25950 ft 411 kts 220°
2026-05-05 19:07 25.12733 67.55945 25507 ft 409 kts 219°
2026-05-05 19:08 25.10398 67.54193 25200 ft 400 kts 219°
2026-05-05 19:08 25.08148 67.52516 24889 ft 383 kts 219°
2026-05-05 19:08 25.05965 67.50889 24357 ft 375 kts 219°
2026-05-05 19:08 25.03819 67.49284 23747 ft 370 kts 219°
2026-05-05 19:09 25.01709 67.47702 23063 ft 367 kts 218°
2026-05-05 19:09 24.99610 67.46119 22323 ft 363 kts 220°
2026-05-05 19:09 24.97887 67.44189 21629 ft 349 kts 242°
2026-05-05 19:09 24.96936 67.41792 20928 ft 338 kts 258°
2026-05-05 19:10 24.96322 67.39288 20182 ft 338 kts 258°
2026-05-05 19:10 24.95664 67.36800 19476 ft 339 kts 250°
2026-05-05 19:10 24.94425 67.34593 18844 ft 342 kts 229°
2026-05-05 19:10 24.92543 67.33001 18212 ft 344 kts 206°
2026-05-05 19:11 24.90256 67.32266 17452 ft 345 kts 185°
2026-05-05 19:11 24.87848 67.32498 16398 ft 352 kts 162°
2026-05-05 19:11 24.85658 67.33714 15294 ft 356 kts 139°
2026-05-05 19:11 24.84032 67.35729 14234 ft 355 kts 117°
2026-05-05 19:12 24.83187 67.38267 13148 ft 353 kts 96°
2026-05-05 19:12 24.83225 67.40904 12034 ft 350 kts 78°
2026-05-05 19:12 24.83734 67.43518 10943 ft 350 kts 75°
2026-05-05 19:12 24.84340 67.46145 9874 ft 349 kts 73°
2026-05-05 19:13 24.84986 67.48691 9103 ft 338 kts 70°
2026-05-05 19:13 24.86049 67.50869 8654 ft 319 kts 51°
2026-05-05 19:13 24.87618 67.52496 8215 ft 305 kts 34°
2026-05-05 19:13 24.89494 67.53480 7776 ft 294 kts 17°
2026-05-05 19:14 24.91484 67.53769 7350 ft 286 kts 359°
2026-05-05 19:14 24.93412 67.53390 6931 ft 281 kts 342°
2026-05-05 19:14 24.95126 67.52414 6519 ft 277 kts 325°
2026-05-05 19:14 24.96492 67.50949 6096 ft 274 kts 307°
2026-05-05 19:15 24.97407 67.49134 5662 ft 270 kts 290°
2026-05-05 19:15 24.97810 67.47140 5243 ft 266 kts 273°
2026-05-05 19:15 24.97755 67.45134 4880 ft 258 kts 262°
2026-05-05 19:15 24.97404 67.43230 4564 ft 250 kts 254°
2026-05-05 19:16 24.96935 67.41401 4248 ft 246 kts 253°
2026-05-05 19:16 24.96467 67.39588 3944 ft 245 kts 253°
2026-05-05 19:16 24.96012 67.37789 3638 ft 244 kts 253°
2026-05-05 19:16 24.95557 67.35983 3330 ft 244 kts 254°
2026-05-05 19:17 24.95105 67.34192 3034 ft 242 kts 253°
2026-05-05 19:17 24.94664 67.32443 2730 ft 230 kts 253°
2026-05-05 19:17 24.94250 67.30802 2459 ft 213 kts 253°
2026-05-05 19:17 24.93871 67.29304 2204 ft 193 kts 253°
2026-05-05 19:18 24.93528 67.27949 1978 ft 176 kts 253°
2026-05-05 19:18 24.93215 67.26710 1776 ft 158 kts 254°
2026-05-05 19:18 24.92932 67.25596 1567 ft 147 kts 255°
2026-05-05 19:18 24.92660 67.24520 1381 ft 144 kts 255°
2026-05-05 19:19 24.92390 67.23455 1203 ft 143 kts 255°
2026-05-05 19:19 24.92124 67.22405 1029 ft 141 kts 255°
2026-05-05 19:19 24.91864 67.21375 816 ft 141 kts 255°
2026-05-05 19:19 24.91602 67.20340 646 ft 140 kts 253°
2026-05-05 19:20 24.91343 67.19314 472 ft 139 kts 255°
2026-05-05 19:20 24.91080 67.18281 325 ft 139 kts 254°
2026-05-05 19:20 24.90819 67.17257 110 ft 137 kts 254°
2026-05-05 19:20 24.90604 67.16404 103 ft 91 kts 254°
2026-05-05 19:21 24.90481 67.15925 103 ft 35 kts 254°
2026-05-05 19:21 24.90429 67.15771 105 ft 14 kts 220°
2026-05-05 19:21 24.90326 67.15776 103 ft 17 kts 163°
2026-05-05 19:21 24.90258 67.15821 101 ft 11 kts 99°
2026-05-05 19:22 24.90277 67.15913 102 ft 13 kts 74°
2026-05-05 19:22 24.90304 67.16018 102 ft 15 kts 74°
2026-05-05 19:22 24.90335 67.16141 102 ft 18 kts 74°
2026-05-05 19:22 24.90371 67.16282 101 ft 20 kts 74°
2026-05-05 19:23 24.90408 67.16430 102 ft 19 kts 76°
2026-05-05 19:23 24.90443 67.16565 102 ft 18 kts 74°
2026-05-05 19:23 24.90455 67.16675 102 ft 13 kts 119°
2026-05-05 19:23 24.90376 67.16707 101 ft 8 kts 179°
2026-05-05 19:24 24.90332 67.16690 101 ft 7 kts 204°
2026-05-05 19:24 24.90288 67.16668 101 ft 7 kts 204°
2026-05-05 19:24 24.90249 67.16649 101 ft 3 kts 204°
2026-05-05 19:24 24.90245 67.16647 101 ft 0 kts 204°